Wind_Speed
10 9 8 8 7 6 5 4 4 3 2 3 3 4 6 6 7 7 8 7 7 7 6 4 4 4 3 4 4 3 3 3 3 4 4 4 5 5 5 5 5 5 6 6
11 11 11 10 9 7 6 5 5 4 4 3 3 4 5 5 6 7 7 7 7 7 6 5 4 4 4 3 4 4 5 5 6 6 6 6 6 7 7 6 6 7 7 8
14 14 13 11 10 8 7 7 7 6 5 5 5 6 6 7 6 6 7 7 7 7 6 6 6 5 5 5 5 5 5 6 7 7 7 7 7 7 7 7 8 8 8 9
17 16 14 12 11 10 9 9 8 7 6 6 6 6 8 8 8 8 7 8 7 7 7 7 7 7 6 6 6 6 6 7 8 8 9 8 8 9 10 9 9 9 10 10
18 17 16 13 12 11 11 10 10 9 8 8 8 7 9 10 9 8 8 9 8 8 8 8 8 7 7 7 7 7 8 9 9 9 9 10 10 10 10 10 10 11 11 12
20 19 18 16 14 13 12 11 11 11 10 10 10 8 9 10 10 10 10 10 10 10 9 9 9 9 8 9 9 9 10 10 11 11 11 11 11 11 12 12 13 13 13 14
20 20 19 17 16 15 13 11 11 11 11 12 12 11 11 11 11 12 12 12 11 12 11 10 10 10 10 11 11 11 12 12 12 12 13 13 14 13 13 14 14 14 15 15
20 21 21 20 18 17 15 14 13 12 11 12 13 13 12 12 12 12 13 13 13 13 13 13 12 12 12 13 13 13 13 14 14 14 14 15 15 15 14 15 15 16 16 16
22 22 21 21 20 19 18 17 16 15 14 13 14 15 14 13 13 14 14 14 14 14 15 14 14 14 14 15 15 15 15 16 16 16 16 15 15 16 16 16 16 16 17 18
23 23 22 21 21 21 20 19 18 16 15 14 15 15 15 15 15 15 15 16 16 16 16 15 15 15 15 16 17 17 18 18 18 19 18 16 17 17 18 18 19 19 19 19
23 22 22 22 22 21 22 22 20 19 19 16 15 16 16 16 16 16 16 17 17 17 18 17 17 17 17 17 18 18 18 18 18 19 19 19 19 20 20 20 20 21 21 20
22 22 23 23 22 22 23 23 21 21 21 20 18 19 18 17 17 17 18 18 18 18 18 18 18 19 19 19 19 20 19 19 19 20 20 21 21 21 22 22 22 22 22 22
23 23 22 22 22 24 24 24 23 22 23 22 20 22 21 21 19 19 19 20 19 19 19 19 19 20 20 20 20 20 20 20 21 21 21 21 21 22 23 23 23 24 24 25
23 24 23 22 22 23 25 25 24 24 23 23 23 23 23 22 22 21 21 21 21 21 21 21 21 21 20 21 22 22 22 22 22 22 22 22 23 23 24 25 25 26 27 27
24 25 25 24 23 24 25 24 25 25 25 24 24 24 23 25 23 23 22 22 22 22 22 22 22 22 22 22 22 23 24 24 24 24 23 24 25 26 27 27 27 28 29 29
25 26 25 25 24 25 25 25 26 26 25 25 26 25 24 25 23 23 23 23 22 22 22 22 23 24 23 23 24 25 25 25 25 26 25 26 28 28 29 30 30 30 31 31
25 26 26 25 24 25 25 25 25 25 25 25 25 25 25 24 24 24 24 24 23 23 23 23 23 24 24 25 25 26 27 27 27 28 27 28 29 30 30 31 32 32 32 32
26 26 27 26 26 26 25 24 24 25 25 25 26 26 25 25 25 25 26 25 25 24 24 24 25 25 26 26 26 27 28 29 29 30 29 30 31 31 31 32 33 33 33 34
27 27 27 26 26 26 26 25 24 25 26 25 26 26 26 26 26 26 26 26 25 25 25 25 26 27 27 28 29 29 29 30 30 30 31 31 32 33 32 33 33 34 34 34
29 29 28 28 27 26 27 26 25 26 26 25 25 26 26 26 25 26 25 25 26 25 26 26 27 28 29 30 30 31 31 31 32 32 32 33 33 34 34 34 34 35 35 35
29 29 30 30 29 28 29 27 26 26 26 25 26 26 27 27 27 27 27 27 27 28 27 28 28 30 31 31 32 32 32 33 33 33 33 33 34 34 35 35 35 36 36 35
28 29 30 30 29 29 29 28 28 28 27 27 27 28 27 27 28 28 29 28 28 28 28 29 30 31 32 33 33 33 33 33 34 33 33 33 34 34 35 36 35 35 35 35
30 29 30 30 30 31 30 28 28 28 28 28 28 28 28 28 28 28 28 29 29 29 29 30 30 31 32 32 33 33 33 33 33 34 34 34 34 35 35 36 36 35 36 36
30 30 30 30 31 31 30 29 29 29 29 29 29 28 28 29 28 28 28 29 29 30 31 31 31 32 32 33 33 33 34 34 34 34 35 34 35 35 35 36 35 35 35 34
30 30 30 31 31 31 30 30 30 30 30 29 29 29 29 29 29 29 28 29 29 30 31 31 32 33 33 32 32 33 33 34 34 34 34 35 35 35 35 34 33 33 33 34
29 30 30 30 30 30 30 30 30 30 30 29 29 29 29 29 29 29 29 29 29 30 31 31 32 32 31 32 33 33 33 33 33 34 34 34 34 34 34 33 33 33 33 33
Wind_Direction
213 218 220 219 219 223 232 239 254 269 330 8 15 6 359 10 11 12 13 11 7 4 359 5 5 2 352 349 347 340 327 325 316 311 312 309 298 288 287 286 285 290 295 297
218 224 227 229 230 236 240 246 258 267 287 314 329 334 337 343 349 358 1 1 358 355 353 350 347 347 337 329 336 333 320 314 314 309 305 304 299 289 286 288 286 290 295 296
220 225 228 232 237 238 245 249 254 266 284 294 302 318 314 320 328 337 344 349 345 342 344 340 339 334 325 319 315 317 321 323 317 313 305 300 298 303 298 294 288 291 293 293
223 224 228 233 238 240 249 253 259 266 278 293 301 309 306 309 316 318 322 325 325 323 325 329 327 326 324 319 314 306 306 308 312 310 305 301 299 297 295 293 293 292 293 295
227 227 228 233 239 245 250 256 262 270 277 285 294 298 301 304 307 310 311 313 310 309 311 315 315 312 312 314 311 308 305 303 304 304 303 299 297 295 293 293 291 293 295 296
229 231 230 234 240 247 256 263 268 273 279 281 284 288 293 301 301 302 303 305 303 300 302 306 309 305 302 305 305 305 303 300 299 297 297 294 295 295 294 295 293 293 294 295
233 235 235 237 242 251 256 262 271 275 274 277 281 281 284 290 294 296 301 302 302 299 298 299 299 301 299 298 299 299 300 299 300 298 298 295 294 296 295 297 297 296 296 295
236 240 240 241 244 249 251 252 253 258 265 274 281 281 286 287 290 293 297 299 301 301 298 293 291 293 296 296 294 292 292 295 296 294 293 294 293 295 297 298 299 299 299 298
233 238 242 243 245 248 250 252 257 261 265 268 273 281 284 288 291 292 294 295 297 298 297 291 289 289 292 292 291 288 287 290 293 292 289 289 291 293 296 298 298 297 297 297
237 239 241 244 247 247 249 255 259 258 261 266 274 280 285 289 291 293 294 293 292 295 295 290 289 290 289 292 292 292 290 290 290 292 290 289 290 292 294 296 297 298 297 300
236 241 245 245 245 248 250 253 255 258 260 261 268 275 282 285 288 291 292 291 290 291 290 286 285 287 288 289 291 292 291 293 291 290 290 291 289 292 295 295 296 298 299 298
235 239 245 249 251 251 253 255 257 260 264 263 262 272 278 283 286 289 291 289 287 288 288 286 283 285 287 289 290 291 291 291 291 290 291 291 289 291 293 295 296 297 298 298
237 238 245 250 253 253 254 257 259 261 264 265 265 271 278 283 284 286 287 288 288 288 288 285 281 282 286 287 289 291 291 291 291 292 293 292 291 291 291 292 293 296 298 299
240 242 244 246 249 254 258 258 259 260 261 265 266 268 273 278 282 283 283 284 285 285 284 282 280 279 282 285 288 291 291 291 291 291 293 291 291 290 290 292 293 295 297 297
240 244 248 251 253 255 259 261 261 261 262 264 268 271 273 274 278 280 280 282 283 283 282 282 279 279 279 281 284 288 290 290 289 288 290 291 289 289 290 292 294 296 296 296
242 246 249 252 254 257 259 261 262 264 266 267 269 271 272 276 278 278 278 279 279 279 280 280 281 280 278 279 281 284 286 287 287 287 288 290 289 289 290 292 294 294 295 295
247 250 252 254 256 258 260 261 264 266 267 267 270 272 276 275 277 277 277 276 275 277 278 279 280 282 281 281 281 283 286 288 288 287 288 289 288 288 288 290 292 293 293 293
247 250 253 254 257 259 260 263 265 266 267 269 270 273 274 274 276 276 276 275 274 276 277 279 280 282 282 283 284 285 287 289 289 290 290 290 289 288 289 289 289 290 291 292
249 250 252 254 258 263 263 264 266 267 269 270 272 273 273 274 274 273 273 273 273 274 275 277 280 282 283 284 286 287 288 289 289 289 290 290 291 291 292 292 291 292 292 292
249 250 253 255 256 260 266 266 267 268 269 270 272 273 274 273 271 272 273 271 271 272 273 275 277 280 282 285 286 287 289 288 287 288 289 289 290 292 293 293 293 293 292 292
249 251 253 256 258 260 264 266 266 267 269 271 272 274 274 272 271 271 272 272 273 274 275 277 279 281 283 285 286 286 287 288 288 289 289 290 291 291 292 293 294 294 294 294
250 253 255 256 257 259 262 264 263 265 268 270 272 273 275 275 275 274 272 272 274 275 277 280 281 282 283 284 286 287 287 287 288 288 289 290 291 291 291 293 294 293 293 293
251 252 255 256 257 259 261 263 265 266 267 269 272 273 274 276 277 277 274 273 276 278 279 281 282 283 285 287 288 289 289 288 288 287 288 288 289 290 291 291 291 292 292 292
252 253 255 257 258 260 262 264 265 266 268 271 273 273 274 275 276 276 276 275 276 277 279 281 282 284 287 288 288 289 289 288 288 288 288 288 289 290 291 291 291 292 293 292
254 255 256 258 259 260 261 262 265 267 268 269 271 272 274 275 276 276 276 276 277 278 279 281 283 285 287 287 288 289 289 288 287 286 287 288 289 290 290 292 292 293 293 292
253 255 256 257 258 259 261 263 265 266 267 268 270 271 272 274 275 275 275 276 277 278 280 281 284 285 286 287 288 288 289 287 287 287 287 290 290 290 291 291 293 294 295 294
Height
5926 5928 5929 5929 5930 5931 5931 5932 5932 5931 5930 5929 5928 5927 5925 5924 5922 5920 5918 5916 5914 5913 5911 5910 5908 5906 5906 5905 5904 5903 5902 5902 5900 5900 5899 5898 5897 5896 5896 5895 5894 5893 5892 5891
5925 5927 5927 5927 5928 5929 5930 5930 5931 5930 5929 5929 5928 5927 5926 5924 5922 5920 5918 5916 5914 5913 5911 5910 5908 5907 5905 5904 5904 5903 5902 5901 5900 5899 5898 5897 5896 5895 5894 5894 5893 5892 5891 5890
5923 5925 5925 5926 5927 5928 5928 5929 5929 5929 5928 5928 5928 5928 5925 5924 5922 5920 5918 5916 5914 5913 5911 5910 5908 5907 5905 5904 5903 5902 5901 5900 5899 5898 5897 5895 5894 5893 5893 5892 5891 5890 5889 5888
5920 5921 5923 5924 5925 5925 5926 5926 5927 5927 5927 5928 5927 5928 5925 5923 5921 5919 5917 5916 5914 5912 5911 5909 5908 5906 5905 5904 5902 5901 5900 5899 5898 5896 5895 5894 5893 5892 5891 5889 5888 5887 5886 5885
5917 5919 5920 5921 5922 5923 5924 5924 5925 5925 5925 5926 5926 5926 5925 5921 5920 5918 5916 5915 5913 5911 5910 5908 5907 5905 5904 5903 5901 5900 5899 5897 5896 5895 5894 5892 5891 5890 5888 5887 5886 5885 5883 5882
5914 5915 5917 5918 5919 5920 5921 5922 5923 5923 5924 5925 5924 5924 5923 5920 5918 5917 5915 5913 5911 5910 5908 5907 5906 5904 5903 5902 5900 5898 5897 5896 5894 5893 5892 5890 5889 5887 5886 5885 5883 5882 5880 5879
5911 5912 5913 5915 5916 5917 5919 5921 5923 5923 5923 5923 5921 5920 5920 5918 5916 5915 5913 5911 5909 5908 5907 5905 5904 5903 5901 5900 5898 5897 5895 5894 5892 5891 5890 5888 5886 5885 5883 5882 5880 5879 5877 5875
5908 5910 5910 5911 5913 5914 5915 5918 5920 5921 5922 5921 5918 5917 5917 5915 5913 5912 5910 5909 5907 5905 5904 5903 5901 5900 5899 5898 5896 5895 5893 5892 5890 5888 5887 5885 5884 5882 5881 5879 5877 5875 5873 5872
5904 5906 5906 5907 5909 5910 5911 5913 5915 5916 5916 5916 5916 5914 5912 5911 5910 5909 5907 5906 5904 5903 5901 5900 5899 5898 5896 5895 5893 5892 5890 5888 5887 5885 5884 5882 5880 5879 5877 5875 5874 5872 5870 5868
5898 5900 5902 5902 5904 5905 5907 5908 5910 5911 5911 5912 5912 5911 5910 5908 5906 5905 5904 5902 5901 5899 5898 5896 5895 5894 5893 5891 5890 5888 5887 5885 5883 5881 5879 5878 5876 5875 5873 5871 5869 5867 5865 5863
5893 5896 5897 5898 5899 5901 5902 5903 5904 5906 5906 5908 5909 5910 5905 5903 5902 5901 5900 5898 5897 5896 5894 5892 5891 5890 5889 5887 5886 5884 5883 5881 5879 5877 5875 5873 5872 5870 5868 5866 5864 5862 5860 5858
5888 5890 5892 5893 5894 5895 5896 5897 5899 5901 5900 5900 5902 5905 5900 5899 5897 5896 5895 5894 5893 5891 5890 5889 5887 5886 5884 5883 5882 5880 5878 5877 5875 5872 5870 5869 5867 5865 5863 5861 5859 5857 5855 5853
5882 5885 5887 5889 5891 5890 5890 5891 5893 5894 5894 5895 5896 5899 5894 5893 5892 5891 5890 5889 5888 5887 5885 5884 5883 5881 5880 5878 5877 5875 5874 5872 5870 5868 5866 5864 5862 5860 5858 5856 5854 5852 5849 5847
5877 5879 5882 5885 5885 5884 5884 5885 5886 5888 5888 5889 5889 5890 5889 5887 5886 5886 5885 5884 5883 5882 5880 5879 5877 5876 5875 5873 5872 5870 5868 5866 5864 5863 5861 5859 5857 5855 5852 5850 5848 5845 5843 5841
5871 5873 5875 5876 5877 5878 5878 5879 5880 5881 5882 5883 5883 5883 5882 5880 5880 5879 5879 5878 5877 5876 5875 5873 5872 5870 5869 5868 5866 5864 5863 5861 5859 5857 5855 5853 5851 5848 5846 5844 5841 5839 5836 5834
5865 5867 5869 5870 5871 5871 5872 5873 5873 5874 5874 5875 5875 5875 5874 5874 5873 5873 5872 5871 5871 5870 5869 5867 5866 5864 5863 5861 5860 5858 5856 5854 5852 5851 5848 5847 5844 5842 5839 5837 5834 5832 5829 5826
5859 5861 5863 5864 5865 5865 5866 5867 5867 5867 5867 5868 5868 5868 5867 5867 5866 5866 5865 5864 5864 5863 5862 5861 5860 5859 5857 5855 5853 5852 5850 5848 5845 5843 5841 5839 5837 5834 5832 5829 5827 5824 5821 5818
5853 5854 5856 5858 5858 5859 5862 5860 5861 5861 5860 5861 5861 5860 5860 5860 5859 5858 5858 5857 5857 5856 5855 5854 5853 5852 5850 5848 5847 5845 5843 5841 5839 5836 5834 5832 5829 5826 5824 5821 5818 5815 5812 5809
5845 5847 5849 5851 5852 5852 5853 5853 5854 5854 5854 5854 5854 5853 5853 5853 5852 5851 5851 5850 5849 5849 5848 5847 5846 5845 5843 5841 5839 5838 5835 5834 5831 5829 5826 5823 5820 5818 5815 5812 5810 5807 5803 5800
5838 5840 5842 5843 5845 5846 5847 5846 5846 5847 5846 5847 5846 5846 5846 5845 5845 5844 5843 5842 5842 5841 5840 5839 5838 5837 5835 5834 5832 5830 5828 5825 5823 5820 5818 5815 5812 5809 5807 5804 5801 5797 5794 5791
5831 5832 5834 5835 5837 5838 5838 5838 5839 5841 5841 5839 5839 5838 5838 5837 5837 5837 5835 5835 5834 5833 5832 5831 5830 5829 5827 5825 5824 5822 5819 5817 5814 5811 5809 5806 5803 5801 5798 5794 5791 5788 5784 5781
5823 5825 5826 5828 5829 5832 5830 5831 5832 5832 5832 5831 5830 5830 5830 5829 5829 5828 5827 5827 5826 5825 5824 5823 5822 5820 5818 5816 5814 5812 5810 5808 5805 5803 5800 5797 5794 5791 5788 5785 5781 5778 5775 5771
5814 5817 5818 5820 5822 5821 5821 5822 5823 5823 5823 5823 5822 5822 5821 5821 5820 5819 5819 5818 5817 5816 5815 5814 5813 5811 5809 5807 5805 5803 5801 5798 5795 5793 5790 5787 5784 5781 5778 5775 5772 5768 5765 5762
5805 5807 5809 5810 5811 5812 5813 5813 5814 5814 5814 5814 5814 5813 5813 5812 5811 5811 5810 5809 5808 5808 5806 5805 5804 5802 5800 5798 5796 5793 5791 5788 5786 5783 5780 5777 5774 5771 5768 5765 5762 5759 5755 5752
5797 5799 5800 5801 5802 5803 5804 5804 5805 5805 5806 5806 5805 5805 5804 5803 5803 5802 5801 5800 5800 5799 5797 5796 5794 5793 5790 5788 5786 5783 5781 5778 5776 5773 5770 5767 5765 5762 5759 5756 5752 5749 5746 5742
5788 5790 5791 5792 5793 5794 5795 5796 5796 5796 5796 5796 5796 5796 5795 5795 5794 5793 5792 5791 5791 5789 5788 5786 5785 5783 5781 5778 5776 5773 5771 5768 5765 5763 5760 5757 5755 5752 5749 5746 5743 5739 5736 5733